Regional Weather Roundup
Issued by NWS

Home | Current Version | Previous Version | Graphics & Text | Print | Product List | Glossary On
Versions: 1 2 3 4 5 6 7 8 9 10 11 12 13 14 15 16 17 18 19 20 21 22 23 24 25 26 27 28 29 30 31 32 33 34 35 36 37 38 39 40 41 42 43 44 45 46 47 48 49 50
529
ASUS43 KFSD 231610
RWRSD

WEATHER ROUNDUP FOR SOUTH DAKOTA
NATIONAL WEATHER SERVICE SIOUX FALLS SD
1100 AM CDT SUN JUL 23 2017

NOTE: "FAIR" INDICATES FEW OR NO CLOUDS BELOW 12,000 FEET WITH NO
SIGNIFICANT WEATHER AND/OR OBSTRUCTIONS TO VISIBILITY.


SDZ001>005-009-010-012>017-231700-
NORTHWEST AND NORTH CENTRAL SOUTH DAKOTA

CITY           SKY/WX    TMP DP  RH WIND       PRES   REMARKS
BUFFALO          N/A     80  50  34 S9        30.04F
FAITH            N/A     77  51  40 VRB3      30.09F
MOBRIDGE       SUNNY     75  58  55 N8        30.05F
$$

SDZ012>016-024>037-041>051-057-063-072>074-231700-
SOUTHWEST AND SOUTH CENTRAL SOUTH DAKOTA

CITY           SKY/WX    TMP DP  RH WIND       PRES   REMARKS
RAPID CTY ARPT SUNNY     79  47  32 SE7       30.12F
PIERRE         SUNNY     79  52  38 N7        30.05F
CUSTER         SUNNY     74  40  29 E14       30.24F
ELLSWORTH AFB  SUNNY     80  46  29 SE8       30.12S
PHILIP         SUNNY     79  54  41 E7        30.08S
PINE RIDGE     SUNNY     81  54  39 E9        30.12S
SPEARFISH      FAIR      79  45  29 CALM      30.15S
WINNER         FAIR      79  55  43 VRB5      30.08S
$$

SDZ004>011-016>023-039-040-231700-
NORTHEAST SOUTH DAKOTA

CITY           SKY/WX    TMP DP  RH WIND       PRES   REMARKS
ABERDEEN       SUNNY     72  59  63 N14       30.05R
WATERTOWN      MOSUNNY   71  60  68 NW14G22   30.02R
BROOKINGS      MOSUNNY   72  59  63 N13G21    30.03R
SISSETON         N/A     67  60  78 NW13      30.02R
$$

SDZ017-020-022-023-036>040-048>070-231700-
SOUTHEAST SOUTH DAKOTA

CITY           SKY/WX    TMP DP  RH WIND       PRES   REMARKS
SIOUX FALLS    MOSUNNY   76  62  62 N17       30.01S
HURON          SUNNY     73  60  63 N9        30.05R
CHAMBERLAIN    SUNNY     80  55  42 N5        30.06S
MITCHELL       SUNNY     75  60  59 N15G23    30.05R
YANKTON        SUNNY     78  60  53 N8        30.03R
$$

ABBREVIATIONS USED IN REMARKS
   TC - TEMPERATURE IN CELSIUS
  WCI - WIND CHILL INDEX
   HX - HEAT INDEX
  VSB - VISIBILITY





USA.gov is the U.S. government's official web portal to all federal, state and local government web resources and services.